[[{"header":{"parameterUnit":"m.s-1","parameterCategory":1,"la1":30.2991,"la2":30.254,"lo1":-89.0895,"lo2":-89.0444,"dy":0.0017,"dx":0.0017,"nx":28,"ny":28,"refTime":"2025-07-19T09:00:00:Z","depth":0,"parameterNumber":2,"parameterNumberName":"U-component_of_WINDS"},"data":[0,0,0,0,0,0,0,0,0,0,0,0,0,0,0,0,0,0,0,0,0,0,0,0,0,0,0,0,0,0,0,0,0,0,0,0,0,0,0,0,0,0,0,0,0,0,0,0,0,0,0,0,0,0,0,0,0,0,1.6231,1.6231,0,1.6299,1.63,1.6301,1.6324,1.6323,1.6323,1.6323,1.6393,1.6395,1.6397,0,0,0,0,0,0,0,0,0,0,0,0,0,1.6116,1.6118,1.623,1.6231,1.6232,1.6299,1.63,1.6301,1.6324,1.6323,1.6323,1.6323,1.6392,1.6394,1.6397,0,0,0,0,0,0,0,0,0,0,0,0,0,1.6174,1.6119,1.623,1.6252,1.6254,1.6299,1.63,1.6301,1.6324,1.6323,1.6323,1.6323,1.6391,1.6394,1.6397,1.6426,0,0,1.6407,1.6408,0,0,0,0,0,0,0,0,1.617,1.6178,1.6248,1.625,1.6253,1.6303,1.6286,1.6343,1.6324,1.6297,1.6323,1.6322,1.6363,1.6368,1.6382,1.6429,1.6432,1.6407,1.6409,1.6411,1.6412,0,0,0,0,0,0,0,1.6166,1.6175,1.6258,1.6249,1.6252,1.6257,1.6265,1.6297,1.6332,1.63,1.6302,1.6309,1.6364,1.6379,1.6384,1.6433,1.6407,1.641,1.6412,1.6413,1.6505,1.6506,0,0,0,0,0,0,1.6159,1.6171,1.6256,1.626,1.621,1.6259,1.6268,1.6287,1.6332,1.6338,1.631,1.631,1.6374,1.638,1.6387,1.6422,1.6411,1.6414,1.6415,1.6505,1.6505,1.6506,0,0,0,0,0,0,1.6156,1.6166,1.6253,1.6216,1.6228,1.6262,1.6283,1.6289,1.6304,1.6339,1.6345,1.6319,1.6374,1.6382,1.6416,1.6425,1.6415,1.6418,1.6504,1.6505,1.6505,1.6494,0,0,0,0,0,0,1.6153,1.6165,1.6177,1.6216,1.6229,1.6281,1.6284,1.629,1.6309,1.631,1.6349,1.6355,1.6374,1.6411,1.6419,1.6429,1.642,1.6503,1.6504,1.6505,1.6494,1.6494,1.6495,0,0,0,0,0,1.6149,1.6171,1.6178,1.6188,1.6245,1.6282,1.6289,1.6311,1.631,1.6322,1.6344,1.6354,1.6422,1.6414,1.6423,1.6435,1.6503,1.6504,1.6505,1.6493,1.6494,1.6495,0,0,0,0,0,0,1.6132,1.6177,1.6184,1.622,1.6247,1.6286,1.6301,1.6311,1.6339,1.6339,1.6365,1.6373,1.6404,1.6423,1.6413,1.6464,1.6463,1.6466,1.6451,1.6452,1.6452,1.6447,1.6423,0,0,0,0,0,1.6133,1.6159,1.6197,1.6224,1.6238,1.6267,1.6284,1.6298,1.6327,1.6338,1.6363,1.6391,1.6418,1.6436,1.6463,1.6496,1.6504,1.6508,1.6509,1.6509,1.6511,1.6529,1.6531,1.651,1.651,1.651,0,0,1.6134,1.6162,1.6177,1.6222,1.6244,1.6271,1.6276,1.6304,1.6324,1.6343,1.6376,1.6395,1.6427,1.6459,1.6475,1.6476,1.6519,1.651,1.651,1.6513,1.653,1.6532,1.6534,1.651,1.651,1.651,0,0,1.615,1.6174,1.6199,1.6221,1.6255,1.6274,1.628,1.6317,1.633,1.6364,1.6378,1.6401,1.6449,1.647,1.6488,1.6509,1.6519,1.6518,1.6521,1.6537,1.6539,1.654,1.6548,1.655,1.652,1.652,1.652,0,1.6147,1.6188,1.6211,1.6238,1.6256,1.6274,1.6299,1.632,1.6361,1.6373,1.6373,1.6432,1.6454,1.6492,1.6497,1.6511,1.6517,1.6514,1.6537,1.6539,1.654,1.6548,1.655,1.6519,1.6519,1.6519,1.6519,0,1.6183,1.6211,1.6227,1.6266,1.6286,1.6312,1.6338,1.6356,1.6368,1.6386,1.6419,1.6447,1.648,1.649,1.6502,1.6529,1.6528,1.6532,1.6532,1.6542,1.6549,1.6552,1.6519,1.6519,1.6519,1.6519,0,0,1.6192,1.6241,1.6247,1.6264,1.6302,1.6324,1.635,1.6382,1.6396,1.6423,1.6445,1.6484,1.6487,1.6507,1.6521,1.6536,1.655,1.6538,1.6539,1.6539,1.6581,1.6577,1.658,1.6557,1.6557,1.6558,1.6578,0,1.6212,1.626,1.628,1.6318,1.6344,1.636,1.6382,1.6407,1.6425,1.6448,1.6468,1.6495,1.6498,1.6509,1.6524,1.6546,1.6559,1.6544,1.6577,1.6578,1.6569,1.6584,1.6581,1.6599,1.6581,1.6581,1.6582,0,1.6243,1.627,1.631,1.6344,1.6355,1.6375,1.6405,1.6428,1.6456,1.6468,1.6488,1.6502,1.6529,1.6526,1.6563,1.6552,1.6566,1.6579,1.658,1.6584,1.6581,1.6588,1.6605,1.6607,1.6586,1.6586,1.6586,0,1.6244,1.6291,1.6321,1.6335,1.6375,1.6389,1.6406,1.6433,1.6451,1.6477,1.6488,1.6517,1.6533,1.6554,1.6575,1.6571,1.6609,1.6608,1.6619,1.6618,1.6627,1.6626,1.6646,1.6636,1.6636,1.6636,1.6636,0,1.6265,1.6289,1.6322,1.6341,1.6367,1.639,1.6416,1.6434,1.6458,1.648,1.6495,1.6515,1.6541,1.6563,1.6579,1.6607,1.6614,1.6623,1.6627,1.6622,1.6621,1.6632,1.6631,1.6636,1.6636,1.6636,1.6636,0,1.6272,1.6295,1.6329,1.6363,1.6372,1.6391,1.642,1.6438,1.6456,1.6483,1.649,1.6518,1.6545,1.6568,1.6604,1.6614,1.6643,1.6648,1.6634,1.6636,1.6645,1.6644,1.6673,1.6677,1.6664,1.6664,1.6664,0,1.6284,1.6303,1.6339,1.6355,1.6372,1.6397,1.6414,1.6436,1.6454,1.6487,1.65,1.6529,1.6553,1.6596,1.6619,1.6646,1.6651,1.6659,1.6655,1.6649,1.6651,1.665,1.6651,1.666,1.666,1.666,1.666,0,1.6302,1.6312,1.6338,1.6366,1.6387,1.6411,1.6435,1.6446,1.6472,1.6491,1.6519,1.6538,1.6574,1.6602,1.6631,1.6648,1.6658,1.6661,1.6665,1.666,1.6651,1.6655,1.6634,1.666,1.666,1.666,1.666,1.666,1.6312,1.6329,1.6357,1.6384,1.6404,1.6426,1.6444,1.6464,1.6488,1.6519,1.653,1.6559,1.6585,1.6626,1.6642,1.6665,1.6666,1.6671,1.6673,1.6674,1.6673,1.6647,1.667,1.667,1.667,1.667,1.667,0,1.6331,1.6349,1.6374,1.6407,1.6428,1.6435,1.6462,1.6478,1.6504,1.6527,1.655,1.6582,1.6608,1.6633,1.666,1.6673,1.6679,1.668,1.6679,1.6683,1.6671,1.6664,1.6675,1.6675,1.6675,1.6675,1.6675,1.6675,1.6343,1.6372,1.6385,1.6424,1.6442,1.647,1.6485,1.6504,1.6523,1.6558,1.658,1.6596,1.6619,1.6649,1.6673,1.6679,1.6689,1.6689,1.6696,1.6685,1.6684,1.6683,1.6677,1.669,1.6691,1.6706,1.6707,1.6707]},{"header":{"parameterUnit":"m.s-1","parameterCategory":1,"la1":30.2991,"la2":30.254,"lo1":-89.0895,"lo2":-89.0444,"dy":0.0017,"dx":0.0017,"nx":28,"ny":28,"refTime":"2025-07-19T09:00:00:Z","depth":0,"parameterNumber":3,"parameterNumberName":"V-component_of_WINDS"},"data":[0,0,0,0,0,0,0,0,0,0,0,0,0,0,0,0,0,0,0,0,0,0,0,0,0,0,0,0,0,0,0,0,0,0,0,0,0,0,0,0,0,0,0,0,0,0,0,0,0,0,0,0,0,0,0,0,0,0,2.191,2.1911,0,2.2026,2.2028,2.2029,2.2054,2.2053,2.2053,2.2052,2.217,2.2174,2.2178,0,0,0,0,0,0,0,0,0,0,0,0,0,2.1706,2.171,2.191,2.1911,2.1913,2.2026,2.2028,2.2029,2.2054,2.2053,2.2052,2.2051,2.2169,2.2173,2.2178,0,0,0,0,0,0,0,0,0,0,0,0,0,2.1806,2.1711,2.1909,2.1939,2.1943,2.2026,2.2028,2.203,2.2055,2.2053,2.2052,2.2051,2.2167,2.2173,2.2179,2.224,0,0,2.2197,2.2199,0,0,0,0,0,0,0,0,2.18,2.1813,2.1933,2.1937,2.1941,2.2024,2.1999,2.21,2.2055,2.2012,2.2052,2.205,2.2123,2.2132,2.2157,2.2246,2.2251,2.2197,2.2201,2.2203,2.2205,0,0,0,0,0,0,0,2.1793,2.1808,2.1956,2.1935,2.194,2.1945,2.1958,2.2019,2.2073,2.2016,2.2018,2.2031,2.2125,2.2151,2.216,2.2253,2.2197,2.2202,2.2206,2.2208,2.2397,2.2398,0,0,0,0,0,0,2.1781,2.1802,2.1952,2.1959,2.1866,2.195,2.1964,2.1999,2.2072,2.2082,2.2032,2.2032,2.2141,2.2153,2.2164,2.224,2.2203,2.2209,2.2212,2.2395,2.2397,2.2399,0,0,0,0,0,0,2.1777,2.1794,2.1947,2.1881,2.1901,2.1955,2.1994,2.2002,2.2028,2.2085,2.2095,2.2049,2.2141,2.2156,2.2221,2.2245,2.2212,2.2217,2.2394,2.2396,2.2398,2.2394,0,0,0,0,0,0,2.1771,2.1793,2.1817,2.1882,2.1905,2.2003,2.1995,2.2005,2.2039,2.204,2.2104,2.2113,2.2141,2.2212,2.2227,2.2252,2.2221,2.2392,2.2395,2.2397,2.2392,2.2396,2.2399,0,0,0,0,0,2.1763,2.1812,2.1819,2.1837,2.1937,2.2005,2.2018,2.205,2.2041,2.2065,2.2101,2.2111,2.2239,2.2218,2.2235,2.2263,2.239,2.2394,2.2397,2.2391,2.2395,2.2399,0,0,0,0,0,0,2.1749,2.1821,2.1829,2.19,2.1946,2.2009,2.2042,2.2053,2.2103,2.2101,2.2138,2.2152,2.2215,2.2245,2.2221,2.2325,2.2314,2.2321,2.2304,2.2308,2.2311,2.2303,2.2226,0,0,0,0,0,2.1754,2.1804,2.1863,2.192,2.1943,2.1988,2.2019,2.2039,2.2088,2.2107,2.2148,2.2195,2.2246,2.2279,2.2329,2.2396,2.241,2.2423,2.2426,2.2429,2.2434,2.2471,2.2477,2.2409,2.2409,2.2409,0,0,2.1765,2.181,2.184,2.1918,2.1956,2.2006,2.2004,2.2057,2.2094,2.2115,2.218,2.2211,2.2265,2.2332,2.2363,2.2359,2.2456,2.2433,2.2434,2.2439,2.2475,2.2481,2.2487,2.2412,2.2411,2.2411,0,0,2.1811,2.185,2.1901,2.1939,2.1997,2.2026,2.2038,2.2099,2.212,2.2185,2.2202,2.2245,2.2333,2.237,2.2401,2.2458,2.2468,2.2473,2.249,2.2526,2.2531,2.2536,2.2556,2.2563,2.2478,2.2478,2.2478,0,2.1817,2.1894,2.1926,2.1978,2.2011,2.2032,2.2083,2.2118,2.2189,2.2211,2.2205,2.2314,2.2352,2.2427,2.2441,2.2465,2.2479,2.2466,2.2528,2.2533,2.2538,2.2557,2.2565,2.2478,2.2478,2.2478,2.2478,0,2.1898,2.1951,2.1985,2.2052,2.2089,2.2141,2.218,2.2213,2.2229,2.2259,2.2324,2.237,2.2429,2.2448,2.2464,2.2524,2.252,2.252,2.251,2.2544,2.2563,2.2571,2.2479,2.2479,2.2479,2.2478,0,0,2.194,2.2023,2.2035,2.2066,2.2129,2.217,2.2221,2.2279,2.2307,2.2354,2.2397,2.2469,2.247,2.2504,2.2525,2.2555,2.2597,2.2552,2.2554,2.2559,2.2665,2.2664,2.2673,2.2603,2.2605,2.2606,2.266,0,2.1993,2.2087,2.2116,2.2194,2.2242,2.2261,2.2305,2.2349,2.2377,2.2421,2.2452,2.2502,2.2499,2.252,2.2551,2.2585,2.2618,2.2581,2.2643,2.2645,2.263,2.2683,2.2683,2.2732,2.2668,2.2669,2.267,0,2.2069,2.2117,2.2199,2.2256,2.2277,2.2317,2.2371,2.2413,2.2462,2.248,2.2517,2.2535,2.2588,2.2573,2.2646,2.262,2.2646,2.2667,2.2669,2.2677,2.266,2.2692,2.2748,2.2756,2.2682,2.2681,2.268,0,2.2091,2.2176,2.2236,2.2261,2.2329,2.2356,2.2385,2.2432,2.2464,2.2511,2.2532,2.2585,2.2613,2.2653,2.2683,2.267,2.2753,2.2741,2.2769,2.2768,2.2787,2.2786,2.2849,2.2803,2.2803,2.2803,2.2803,0,2.2148,2.2197,2.2247,2.2284,2.2339,2.2371,2.2425,2.2455,2.2497,2.2539,2.2558,2.2597,2.2635,2.2678,2.2702,2.2758,2.2771,2.2787,2.2793,2.2786,2.2783,2.2804,2.2802,2.2805,2.2804,2.2804,2.2804,0,2.2182,2.2218,2.2284,2.2342,2.2357,2.2395,2.2444,2.248,2.2508,2.2561,2.2575,2.2619,2.2671,2.2705,2.2772,2.2788,2.2849,2.2854,2.2833,2.2836,2.2862,2.2859,2.2941,2.2954,2.2899,2.2899,2.29,0,2.2217,2.2255,2.2317,2.2346,2.2376,2.2423,2.2456,2.2488,2.2521,2.2578,2.2607,2.266,2.2705,2.2787,2.2824,2.2875,2.2881,2.2906,2.2889,2.288,2.2881,2.2879,2.2883,2.2909,2.291,2.291,2.291,0,2.2274,2.2289,2.2336,2.2388,2.2427,2.247,2.2512,2.2535,2.2575,2.2611,2.2664,2.2698,2.2766,2.2818,2.2871,2.29,2.2912,2.2915,2.2924,2.2918,2.2904,2.2912,2.2841,2.2914,2.2913,2.2913,2.2913,2.2913,2.231,2.2345,2.2393,2.2444,2.2479,2.2518,2.2554,2.2586,2.2632,2.2689,2.2705,2.2761,2.2806,2.2879,2.2909,2.2952,2.2949,2.2962,2.2966,2.2969,2.2969,2.2896,2.2961,2.2961,2.2961,2.2961,2.2961,0,2.2368,2.24,2.2446,2.2505,2.2545,2.2552,2.2599,2.2631,2.268,2.2722,2.2765,2.2825,2.2875,2.2916,2.2967,2.2994,2.3,2.3006,2.3005,2.3011,2.2968,2.2955,2.3,2.3,2.3,2.3,2.3,2.3,2.2403,2.2462,2.2482,2.2558,2.2589,2.2644,2.267,2.2705,2.2739,2.2806,2.2848,2.2874,2.2914,2.2968,2.3014,2.3025,2.3043,2.3048,2.3059,2.3019,2.3014,2.301,2.2998,2.3051,2.3051,2.3099,2.3099,2.3099]}]]